,,Stat1,,Stat2,,Stat3,,Stat4,,Wind1,,Wind1,
time,status,PR1M_SUM,status,RH1M_AVG,status,SR1M_AVG,status,TA1M_AVG,status,W1dAve1m,status,W1sAve1m,
1999-12-08, 00:01:00,VALID,0,VALID,99.9189,VALID,0,VALID,18.3137,VALID,218,VALID,0,
1999-12-08, 00:02:00,VALID,0,VALID,99.8934,VALID,0,VALID,18.3271,VALID,218,VALID,0,
1999-12-08, 00:03:00,VALID,0,VALID,99.7854,VALID,0,VALID,18.2749,VALID,218,VALID,0,
1999-12-08, 00:04:00,VALID,0,VALID,99.8222,VALID,0,VALID,18.256,VALID,218,VALID,0,
1999-12-08, 00:05:01,VALID,0,VALID,99.8222,VALID,0.0169808,VALID,18.2556,VALID,218,VALID,0,
1999-12-08, 00:06:01,VALID,0,VALID,99.8591,VALID,0,VALID,18.2493,VALID,218,VALID,0,
1999-12-08, 00:07:01,VALID,0,VALID,99.8121,VALID,0,VALID,18.2207,VALID,218,VALID,0,
1999-12-08, 00:08:00,VALID,0,VALID,99.8884,VALID,0,VALID,18.2235,VALID,218,VALID,0,
1999-12-08, 00:09:00,VALID,0,VALID,99.6849,VALID,-0.0339617,VALID,18.1784,VALID,218,VALID,0,
1999-12-08, 00:10:00,VALID,0,VALID,99.6887,VALID,0,VALID,18.1493,VALID,218,VALID,0,
1999-12-08, 00:11:00,VALID,0,VALID,99.9023,VALID,0,VALID,18.1941,VALID,218,VALID,0,
1999-12-08, 00:12:00,VALID,0,VALID,99.9201,VALID,-0.0169808,VALID,18.2336,VALID,218,VALID,0,
1999-12-08, 00:13:00,VALID,0,VALID,99.6773,VALID,0,VALID,18.1717,VALID,218,VALID,0,
1999-12-08, 00:14:00,VALID,0,VALID,99.4954,VALID,0.0169808,VALID,18.1006,VALID,197,VALID,0,
1999-12-08, 00:15:00,VALID,0,VALID,99.2742,VALID,-0.0169808,VALID,18.0039,VALID,181,VALID,0,
1999-12-08, 00:16:00,VALID,0,VALID,99.133,VALID,-0.0169808,VALID,17.949,VALID,155,VALID,0,
1999-12-08, 00:17:00,VALID,0,VALID,99.278,VALID,0,VALID,17.9614,VALID,137,VALID,0,
1999-12-08, 00:18:01,VALID,0,VALID,99.3937,VALID,0,VALID,17.9815,VALID,125,VALID,0,
1999-12-08, 00:19:00,VALID,0,VALID,99.6607,VALID,0,VALID,18.0909,VALID,113,VALID,0,
1999-12-08, 00:20:00,VALID,0,VALID,99.7714,VALID,-0.0169808,VALID,18.1821,VALID,101,VALID,0,
1999-12-08, 00:21:00,VALID,0,VALID,99.7726,VALID,-0.0339617,VALID,18.2336,VALID,98,VALID,0,
1999-12-08, 00:22:00,VALID,0,VALID,99.7459,VALID,-0.0169808,VALID,18.2722,VALID,95,VALID,0,
1999-12-08, 00:23:00,VALID,0,VALID,99.7281,VALID,0,VALID,18.3271,VALID,96,VALID,0,
1999-12-08, 00:24:00,VALID,0,VALID,99.6417,VALID,-0.0169808,VALID,18.3564,VALID,104,VALID,0,
1999-12-08, 00:25:00,VALID,0,VALID,99.4814,VALID,0,VALID,18.3627,VALID,119,VALID,0,
1999-12-08, 00:26:00,VALID,0,VALID,99.325,VALID,0,VALID,18.3793,VALID,121,VALID,0,
1999-12-08, 00:27:00,VALID,0,VALID,99.2322,VALID,0,VALID,18.3858,VALID,117,VALID,0,
1999-12-08, 00:28:00,VALID,0,VALID,99.1368,VALID,0,VALID,18.3987,VALID,119,VALID,0,
1999-12-08, 00:29:01,VALID,0,VALID,98.9639,VALID,0,VALID,18.3888,VALID,120,VALID,0,
1999-12-08, 00:30:00,VALID,0,VALID,98.6015,VALID,-0.0169808,VALID,18.3271,VALID,119,VALID,0,
1999-12-08, 00:31:00,VALID,0,VALID,98.1679,VALID,-0.0339617,VALID,18.2302,VALID,118,VALID,0,
1999-12-08, 00:32:00,VALID,0,VALID,97.9352,VALID,0,VALID,18.1491,VALID,127,VALID,0,
1999-12-08, 00:33:00,VALID,0,VALID,98.2124,VALID,0,VALID,18.1436,VALID,124,VALID,0,
1999-12-08, 00:34:00,VALID,0,VALID,98.501,VALID,-0.0169808,VALID,18.156,VALID,125,VALID,0,
1999-12-08, 00:35:00,VALID,0,VALID,98.5366,VALID,-0.0169808,VALID,18.1563,VALID,119,VALID,0,
1999-12-08, 00:36:00,VALID,0,VALID,98.398,VALID,-0.0169808,VALID,18.1166,VALID,114,VALID,0,
1999-12-08, 00:37:00,VALID,0,VALID,98.4311,VALID,-0.0339617,VALID,18.1369,VALID,111,VALID,0,
1999-12-08, 00:38:00,VALID,0,VALID,98.5773,VALID,0,VALID,18.1623,VALID,104,VALID,0,
1999-12-08, 00:39:00,VALID,0,VALID,98.5773,VALID,-0.0169808,VALID,18.1854,VALID,95,VALID,0,
1999-12-08, 00:40:00,VALID,0,VALID,98.5519,VALID,0,VALID,18.1851,VALID,94,VALID,0,
1999-12-08, 00:41:00,VALID,0,VALID,98.4603,VALID,-0.0169808,VALID,18.1821,VALID,92,VALID,0,
1999-12-08, 00:42:00,VALID,0,VALID,98.4464,VALID,0,VALID,18.1782,VALID,95,VALID,0,
1999-12-08, 00:43:00,VALID,0,VALID,98.3268,VALID,0,VALID,18.1692,VALID,97,VALID,0,
1999-12-08, 00:44:00,VALID,0,VALID,98.6078,VALID,0,VALID,18.2105,VALID,86,VALID,0,
1999-12-08, 00:45:00,VALID,0,VALID,98.7821,VALID,0,VALID,18.2629,VALID,90,VALID,0,
1999-12-08, 00:46:00,VALID,0,VALID,98.7973,VALID,0,VALID,18.2886,VALID,99,VALID,0,
1999-12-08, 00:47:00,VALID,0,VALID,98.749,VALID,0,VALID,18.3008,VALID,106,VALID,0,
1999-12-08, 00:48:00,VALID,0,VALID,98.6892,VALID,-0.0169808,VALID,18.3301,VALID,105,VALID,0,
1999-12-08, 00:49:01,VALID,0,VALID,98.632,VALID,0,VALID,18.3597,VALID,104,VALID,0,
1999-12-08, 00:50:00,VALID,0,VALID,98.5468,VALID,0,VALID,18.3657,VALID,97,VALID,0,
1999-12-08, 00:51:00,VALID,0,VALID,98.3523,VALID,-0.0169808,VALID,18.3495,VALID,91,VALID,0,
1999-12-08, 00:52:00,VALID,0,VALID,98.3459,VALID,0.0169808,VALID,18.3562,VALID,78,VALID,0,
1999-12-08, 00:53:00,VALID,0,VALID,98.3942,VALID,0.0169808,VALID,18.3689,VALID,75,VALID,0,
1999-12-08, 00:54:00,VALID,0,VALID,98.3777,VALID,0.0339617,VALID,18.3654,VALID,73,VALID,0,
1999-12-08, 00:55:00,VALID,0,VALID,98.3357,VALID,0,VALID,18.3592,VALID,73,VALID,0,
1999-12-08, 00:56:00,VALID,0,VALID,98.3256,VALID,-0.0169808,VALID,18.3761,VALID,73,VALID,0,
1999-12-08, 00:57:00,VALID,0,VALID,98.2887,VALID,0,VALID,18.3657,VALID,94,VALID,0,
1999-12-08, 00:58:00,VALID,0,VALID,98.1437,VALID,0,VALID,18.356,VALID,109,VALID,0,
1999-12-08, 00:59:00,VALID,0,VALID,98.0916,VALID,0.0169808,VALID,18.3398,VALID,108,VALID,0,
1999-12-08, 01:00:00,VALID,0,VALID,98.1488,VALID,-0.0169808,VALID,18.3269,VALID,97,VALID,0,
1999-12-08, 01:01:00,VALID,0,VALID,98.1539,VALID,0.0339617,VALID,18.307,VALID,97,VALID,0,
1999-12-08, 01:02:00,VALID,0,VALID,98.192,VALID,0,VALID,18.3234,VALID,93,VALID,0,
1999-12-08, 01:03:00,VALID,0,VALID,98.0967,VALID,0,VALID,18.3371,VALID,94,VALID,0,
1999-12-08, 01:04:00,VALID,0,VALID,98.0725,VALID,0,VALID,18.3437,VALID,91,VALID,0,
1999-12-08, 01:05:00,VALID,0,VALID,98.1463,VALID,-0.0169808,VALID,18.3592,VALID,84,VALID,0,
1999-12-08, 01:06:00,VALID,0,VALID,98.0852,VALID,0.0169808,VALID,18.4142,VALID,75,VALID,0,
1999-12-08, 01:07:00,VALID,0,VALID,97.9263,VALID,0.0849042,VALID,18.4627,VALID,56,VALID,0,
1999-12-08, 01:08:00,VALID,0,VALID,97.8538,VALID,0.0339617,VALID,18.5107,VALID,75,VALID,0,
1999-12-08, 01:09:00,VALID,0,VALID,97.5639,VALID,0.0509425,VALID,18.5395,VALID,87,VALID,0,
1999-12-08, 01:10:00,VALID,0,VALID,97.2739,VALID,0.0339617,VALID,18.5492,VALID,86,VALID,0,
1999-12-08, 01:11:00,VALID,0,VALID,97.0756,VALID,0.0509425,VALID,18.5428,VALID,96,VALID,0,
1999-12-08, 01:12:00,VALID,0,VALID,97.0056,VALID,0.0849042,VALID,18.5296,VALID,99,VALID,0,
1999-12-08, 01:13:00,VALID,0,VALID,97.0552,VALID,0.0509425,VALID,18.5169,VALID,99,VALID,0,
1999-12-08, 01:14:00,VALID,0,VALID,97.2205,VALID,0.0679233,VALID,18.5201,VALID,99,VALID,0,
1999-12-08, 01:15:00,VALID,0,VALID,97.2307,VALID,0.0679233,VALID,18.5072,VALID,99,VALID,0,
1999-12-08, 01:16:00,VALID,0,VALID,97.2294,VALID,0.0509425,VALID,18.5042,VALID,99,VALID,0,
1999-12-08, 01:17:00,VALID,0,VALID,97.19,VALID,0.0509425,VALID,18.4844,VALID,99,VALID,0,
1999-12-08, 01:18:00,VALID,0,VALID,97.1175,VALID,0.0169808,VALID,18.4687,VALID,99,VALID,0,
1999-12-08, 01:19:00,VALID,0,VALID,97.0234,VALID,0.0509425,VALID,18.4428,VALID,99,VALID,0,
1999-12-08, 01:20:00,VALID,0,VALID,97.2243,VALID,0.0679233,VALID,18.4232,VALID,219,VALID,0,
1999-12-08, 01:21:00,VALID,0,VALID,97.3808,VALID,-0.0339617,VALID,18.4084,VALID,252,VALID,0,
1999-12-08, 01:22:00,VALID,0,VALID,97.4049,VALID,-0.0509425,VALID,18.3758,VALID,252,VALID,0,
1999-12-08, 01:23:00,VALID,0,VALID,97.5168,VALID,-0.0849042,VALID,18.3631,VALID,252,VALID,0,
1999-12-08, 01:24:00,VALID,0,VALID,97.6452,VALID,-0.0679233,VALID,18.3502,VALID,252,VALID,0,
1999-12-08, 01:25:00,VALID,0,VALID,97.6262,VALID,-0.0169808,VALID,18.3246,VALID,252,VALID,0,
1999-12-08, 01:26:00,VALID,0,VALID,97.7749,VALID,-0.0169808,VALID,18.3043,VALID,252,VALID,0,
1999-12-08, 01:27:00,VALID,0,VALID,97.9822,VALID,-0.0339617,VALID,18.3144,VALID,252,VALID,0,
1999-12-08, 01:28:00,VALID,0,VALID,98.2022,VALID,-0.0679233,VALID,18.3179,VALID,252,VALID,0,
1999-12-08, 01:29:00,VALID,0,VALID,98.2302,VALID,-0.101885,VALID,18.3214,VALID,252,VALID,0,
1999-12-08, 01:30:00,VALID,0,VALID,98.2747,VALID,-0.0679233,VALID,18.3052,VALID,252,VALID,0,
1999-12-08, 01:31:00,VALID,0,VALID,98.4514,VALID,-0.0679233,VALID,18.3209,VALID,277,VALID,0,
1999-12-08, 01:32:00,VALID,0,VALID,98.5939,VALID,-0.0849042,VALID,18.3209,VALID,292,VALID,0,
1999-12-08, 01:33:01,VALID,0,VALID,98.7019,VALID,-0.0169808,VALID,18.3345,VALID,288,VALID,0,
1999-12-08, 01:34:01,VALID,0,VALID,98.7503,VALID,-0.0169808,VALID,18.3338,VALID,279,VALID,0,
1999-12-08, 01:35:00,VALID,0,VALID,98.7083,VALID,-0.0679233,VALID,18.3214,VALID,279,VALID,0,
1999-12-08, 01:36:00,VALID,0,VALID,98.6702,VALID,-0.0339617,VALID,18.292,VALID,279,VALID,0,
1999-12-08, 01:37:00,VALID,0,VALID,98.8342,VALID,-0.0679233,VALID,18.3246,VALID,288,VALID,0,
1999-12-08, 01:38:00,VALID,0,VALID,98.9486,VALID,-0.0849042,VALID,18.3537,VALID,289,VALID,0,
1999-12-08, 01:39:00,VALID,0,VALID,98.955,VALID,-0.0679233,VALID,18.3666,VALID,280,VALID,0,
1999-12-08, 01:40:00,VALID,0,VALID,98.8622,VALID,-0.0849042,VALID,18.3574,VALID,272,VALID,0,
1999-12-08, 01:41:00,VALID,0,VALID,98.8444,VALID,-0.0849042,VALID,18.3574,VALID,272,VALID,0,
1999-12-08, 01:42:00,VALID,0,VALID,98.7655,VALID,-0.0169808,VALID,18.341,VALID,272,VALID,0,
1999-12-08, 01:43:00,VALID,0,VALID,98.7579,VALID,-0.0679233,VALID,18.3504,VALID,273,VALID,0,
1999-12-08, 01:44:00,VALID,0,VALID,98.8316,VALID,-0.0509425,VALID,18.353,VALID,296,VALID,0,
1999-12-08, 01:45:00,VALID,0,VALID,98.8202,VALID,-0.0509425,VALID,18.4054,VALID,300,VALID,0,
1999-12-08, 01:46:00,VALID,0,VALID,98.6854,VALID,-0.0509425,VALID,18.438,VALID,309,VALID,0,
1999-12-08, 01:47:00,VALID,0,VALID,98.2772,VALID,-0.0849042,VALID,18.4116,VALID,318,VALID,0,
1999-12-08, 01:48:00,VALID,0,VALID,97.8182,VALID,-0.0679233,VALID,18.3666,VALID,318,VALID,0,
1999-12-08, 01:49:00,VALID,0,VALID,97.8919,VALID,-0.0679233,VALID,18.3726,VALID,318,VALID,0,
1999-12-08, 01:50:00,VALID,0,VALID,98.0356,VALID,-0.0679233,VALID,18.3825,VALID,305,VALID,0,
1999-12-08, 01:51:00,VALID,0,VALID,98.0763,VALID,0,VALID,18.3687,VALID,292,VALID,0,
1999-12-08, 01:52:00,VALID,0,VALID,97.7126,VALID,0.0339617,VALID,18.3036,VALID,292,VALID,0,
1999-12-08, 01:53:00,VALID,0,VALID,97.3502,VALID,0.0169808,VALID,18.2717,VALID,292,VALID,0,
1999-12-08, 01:54:00,VALID,0,VALID,97.5956,VALID,0.0169808,VALID,18.2424,VALID,292,VALID,0,
1999-12-08, 01:55:01,VALID,0,VALID,97.2421,VALID,0.0169808,VALID,18.1653,VALID,292,VALID,0,
1999-12-08, 01:56:01,VALID,0,VALID,97.3375,VALID,0,VALID,18.1138,VALID,290,VALID,0,
1999-12-08, 01:57:00,VALID,0,VALID,97.6974,VALID,0.0509425,VALID,18.0806,VALID,289,VALID,0,
1999-12-08, 01:58:00,VALID,0,VALID,98.145,VALID,0.0339617,VALID,18.0872,VALID,284,VALID,0,
1999-12-08, 01:59:00,VALID,0,VALID,98.6485,VALID,0.0169808,VALID,18.1263,VALID,211,VALID,0,
1999-12-08, 02:00:00,VALID,0,VALID,98.8139,VALID,0.0169808,VALID,18.1547,VALID,207,VALID,0,
1999-12-08, 02:01:00,VALID,0,VALID,98.7528,VALID,0.0169808,VALID,18.1556,VALID,207,VALID,0,
1999-12-08, 02:02:00,VALID,0,VALID,98.735,VALID,0.0679233,VALID,18.1355,VALID,207,VALID,0,
1999-12-08, 02:03:00,VALID,0,VALID,98.7337,VALID,0.0509425,VALID,18.1297,VALID,207,VALID,0,
1999-12-08, 02:04:00,VALID,0,VALID,98.7439,VALID,0.0169808,VALID,18.1334,VALID,217,VALID,0,
1999-12-08, 02:05:00,VALID,0,VALID,98.6829,VALID,0,VALID,18.1163,VALID,241,VALID,0,
1999-12-08, 02:06:00,VALID,0,VALID,98.7579,VALID,0.0679233,VALID,18.1265,VALID,248,VALID,0,
1999-12-08, 02:07:00,VALID,0,VALID,98.7706,VALID,0,VALID,18.136,VALID,248,VALID,0,
1999-12-08, 02:08:00,VALID,0,VALID,98.7121,VALID,0.0509425,VALID,18.1457,VALID,251,VALID,0,
1999-12-08, 02:09:00,VALID,0,VALID,98.3662,VALID,0,VALID,18.1069,VALID,233,VALID,0,
1999-12-08, 02:10:00,VALID,0,VALID,97.925,VALID,0.0169808,VALID,18.0323,VALID,230,VALID,0,
1999-12-08, 02:11:00,VALID,0,VALID,97.7838,VALID,0,VALID,17.9804,VALID,228,VALID,0,
1999-12-08, 02:12:00,VALID,0,VALID,98.0255,VALID,0.0169808,VALID,17.9543,VALID,228,VALID,0,
1999-12-08, 02:13:00,VALID,0,VALID,98.2086,VALID,0,VALID,17.942,VALID,228,VALID,0,
1999-12-08, 02:14:00,VALID,0,VALID,98.5112,VALID,0.0169808,VALID,17.9517,VALID,238,VALID,0,
1999-12-08, 02:15:00,VALID,0,VALID,98.6371,VALID,0.0169808,VALID,17.978,VALID,234,VALID,0,
1999-12-08, 02:16:00,VALID,0,VALID,98.6422,VALID,0.0169808,VALID,17.9686,VALID,244,VALID,0,
1999-12-08, 02:17:00,VALID,0,VALID,98.7159,VALID,0.0169808,VALID,17.9649,VALID,251,VALID,0,
1999-12-08, 02:18:01,VALID,0,VALID,98.8876,VALID,0.0679233,VALID,18.0002,VALID,274,VALID,0,
1999-12-08, 02:19:00,VALID,0,VALID,98.9499,VALID,0.0339617,VALID,18.0418,VALID,280,VALID,0,
1999-12-08, 02:20:00,VALID,0,VALID,98.9639,VALID,0.0339617,VALID,18.0872,VALID,285,VALID,0,
1999-12-08, 02:21:00,VALID,0,VALID,99.0707,VALID,-0.0509425,VALID,18.1563,VALID,306,VALID,0.199554,
1999-12-08, 02:22:00,VALID,0,VALID,98.913,VALID,-0.101885,VALID,18.2184,VALID,307,VALID,0.587171,
1999-12-08, 02:23:00,VALID,0,VALID,98.7528,VALID,-0.0849042,VALID,18.2759,VALID,312,VALID,0.69634,
1999-12-08, 02:24:00,VALID,0,VALID,98.5265,VALID,-0.0509425,VALID,18.3377,VALID,305,VALID,0.78125,
1999-12-08, 02:25:00,VALID,0,VALID,98.3434,VALID,-0.0849042,VALID,18.4315,VALID,303,VALID,0.665296,
1999-12-08, 02:26:00,VALID,0,VALID,97.8233,VALID,-0.0849042,VALID,18.4901,VALID,308,VALID,0.626234,
1999-12-08, 02:27:00,VALID,0,VALID,97.5982,VALID,-0.0849042,VALID,18.5315,VALID,310,VALID,0.575076,
1999-12-08, 02:28:00,VALID,0,VALID,97.218,VALID,-0.0679233,VALID,18.5705,VALID,308,VALID,0.455469,
1999-12-08, 02:29:01,VALID,0,VALID,96.5046,VALID,-0.0849042,VALID,18.5608,VALID,312,VALID,0.0657895,
1999-12-08, 02:30:00,VALID,0,VALID,94.6684,VALID,-0.0849042,VALID,18.441,VALID,31,VALID,0.00273437,
1999-12-08, 02:31:00,VALID,0,VALID,94.5107,VALID,-0.0849042,VALID,18.2828,VALID,95,VALID,0,
1999-12-08, 02:32:00,VALID,0,VALID,94.9088,VALID,-0.0509425,VALID,18.0819,VALID,95,VALID,0,
1999-12-08, 02:33:00,VALID,0,VALID,95.7404,VALID,-0.0849042,VALID,17.9339,VALID,102,VALID,0,
1999-12-08, 02:34:00,VALID,0,VALID,96.3329,VALID,-0.0679233,VALID,17.8171,VALID,104,VALID,0,
1999-12-08, 02:35:00,VALID,0,VALID,97.1913,VALID,-0.0849042,VALID,17.7562,VALID,109,VALID,0,
1999-12-08, 02:36:00,VALID,0,VALID,97.3528,VALID,-0.0169808,VALID,17.6615,VALID,110,VALID,0,
1999-12-08, 02:37:00,VALID,0,VALID,97.5168,VALID,0.0169808,VALID,17.5965,VALID,117,VALID,0,
1999-12-08, 02:38:00,VALID,0,VALID,97.7495,VALID,-0.0169808,VALID,17.5284,VALID,119,VALID,0,
1999-12-08, 02:39:00,VALID,0,VALID,98.1234,VALID,0.0169808,VALID,17.509,VALID,138,VALID,0,
1999-12-08, 02:40:01,VALID,0,VALID,98.6778,VALID,0,VALID,17.5413,VALID,151,VALID,0,
1999-12-08, 02:41:00,VALID,0,VALID,98.7846,VALID,0.0339617,VALID,17.532,VALID,157,VALID,0,
1999-12-08, 02:42:00,VALID,0,VALID,99.5056,VALID,0,VALID,17.6189,VALID,165,VALID,0,
1999-12-08, 02:43:00,VALID,0,VALID,99.9278,VALID,0,VALID,17.8291,VALID,168,VALID,0,
1999-12-08, 02:44:00,VALID,0,VALID,99.7345,VALID,0,VALID,17.8548,VALID,168,VALID,0,
1999-12-08, 02:45:00,VALID,0,VALID,99.5056,VALID,0.0169808,VALID,17.8132,VALID,167,VALID,0,
1999-12-08, 02:46:00,VALID,0,VALID,99.428,VALID,0,VALID,17.7643,VALID,167,VALID,0,
1999-12-08, 02:47:00,VALID,0,VALID,99.5514,VALID,0.0169808,VALID,17.7742,VALID,167,VALID,0,
1999-12-08, 02:48:00,VALID,0,VALID,99.7523,VALID,0.0339617,VALID,17.8453,VALID,170,VALID,0,
1999-12-08, 02:49:00,VALID,0,VALID,99.5806,VALID,0.0169808,VALID,17.8485,VALID,165,VALID,0,
1999-12-08, 02:50:00,VALID,0,VALID,99.2513,VALID,0.0339617,VALID,17.7356,VALID,155,VALID,0,
1999-12-08, 02:51:01,VALID,0,VALID,99.3276,VALID,0,VALID,17.7124,VALID,147,VALID,0,
1999-12-08, 02:52:00,VALID,0,VALID,99.5336,VALID,0,VALID,17.7874,VALID,146,VALID,0,
1999-12-08, 02:53:00,VALID,0,VALID,99.6226,VALID,0,VALID,17.8649,VALID,161,VALID,0,
1999-12-08, 02:54:00,VALID,0,VALID,99.6353,VALID,0,VALID,17.9067,VALID,163,VALID,0,
1999-12-08, 02:55:00,VALID,0,VALID,99.4229,VALID,0,VALID,17.9363,VALID,169,VALID,0,
1999-12-08, 02:56:00,VALID,0,VALID,99.3784,VALID,0,VALID,17.949,VALID,169,VALID,0,
1999-12-08, 02:57:00,VALID,0,VALID,99.0733,VALID,0.0169808,VALID,17.9293,VALID,168,VALID,0,
1999-12-08, 02:58:00,VALID,0,VALID,98.7096,VALID,0.0679233,VALID,17.8714,VALID,159,VALID,0,
1999-12-08, 02:59:00,VALID,0,VALID,98.6689,VALID,0,VALID,17.8716,VALID,159,VALID,0,
1999-12-08, 03:00:00,VALID,0,VALID,98.7337,VALID,0,VALID,17.8746,VALID,159,VALID,0,
1999-12-08, 03:01:00,VALID,0,VALID,98.7732,VALID,0,VALID,17.8682,VALID,159,VALID,0,
1999-12-08, 03:02:01,VALID,0,VALID,98.6854,VALID,0,VALID,17.8195,VALID,159,VALID,0,
1999-12-08, 03:03:00,VALID,0,VALID,98.4006,VALID,0.0169808,VALID,17.7384,VALID,156,VALID,0,
1999-12-08, 03:04:00,VALID,0,VALID,98.0191,VALID,0,VALID,17.665,VALID,155,VALID,0,
1999-12-08, 03:05:00,VALID,0,VALID,97.8779,VALID,0,VALID,17.5865,VALID,155,VALID,0,
1999-12-08, 03:06:00,VALID,0,VALID,98.1094,VALID,-0.0679233,VALID,17.565,VALID,155,VALID,0,
1999-12-08, 03:07:00,VALID,0,VALID,98.5227,VALID,-0.0849042,VALID,17.6012,VALID,155,VALID,0,
1999-12-08, 03:08:00,VALID,0,VALID,98.7032,VALID,-0.0509425,VALID,17.6181,VALID,155,VALID,0,
1999-12-08, 03:09:00,VALID,0,VALID,98.8227,VALID,-0.0849042,VALID,17.598,VALID,155,VALID,0,
1999-12-08, 03:10:00,VALID,0,VALID,98.7999,VALID,-0.0509425,VALID,17.5786,VALID,145,VALID,0,
1999-12-08, 03:11:00,VALID,0,VALID,98.8762,VALID,-0.0509425,VALID,17.5657,VALID,53,VALID,0,
1999-12-08, 03:12:00,VALID,0,VALID,99.278,VALID,-0.0679233,VALID,17.6693,VALID,53,VALID,0,
1999-12-08, 03:13:01,VALID,0,VALID,99.2831,VALID,-0.0509425,VALID,17.6719,VALID,53,VALID,0,
1999-12-08, 03:14:00,VALID,0,VALID,99.2538,VALID,-0.0169808,VALID,17.6657,VALID,53,VALID,0,
1999-12-08, 03:15:00,VALID,0,VALID,99.3212,VALID,-0.0849042,VALID,17.7012,VALID,53,VALID,0,
1999-12-08, 03:16:00,VALID,0,VALID,99.325,VALID,-0.0849042,VALID,17.7111,VALID,53,VALID,0,
1999-12-08, 03:17:00,VALID,0,VALID,99.3568,VALID,-0.101885,VALID,17.7435,VALID,53,VALID,0,
1999-12-08, 03:18:00,VALID,0,VALID,99.2996,VALID,-0.0339617,VALID,17.7594,VALID,53,VALID,0,
1999-12-08, 03:19:00,VALID,0,VALID,99.0923,VALID,-0.0849042,VALID,17.7372,VALID,53,VALID,0,
1999-12-08, 03:20:00,VALID,0,VALID,98.9753,VALID,-0.0509425,VALID,17.7109,VALID,53,VALID,0,
1999-12-08, 03:21:00,VALID,0,VALID,99.0783,VALID,-0.0169808,VALID,17.7779,VALID,101,VALID,0,
1999-12-08, 03:22:00,VALID,0,VALID,98.4705,VALID,0.0169808,VALID,17.707,VALID,125,VALID,0,
1999-12-08, 03:23:00,VALID,0,VALID,98.1564,VALID,0.0679233,VALID,17.6521,VALID,122,VALID,0,
1999-12-08, 03:24:01,VALID,0,VALID,98.6104,VALID,0.0169808,VALID,17.6807,VALID,122,VALID,0,
1999-12-08, 03:25:00,VALID,0,VALID,98.8965,VALID,0.0339617,VALID,17.752,VALID,122,VALID,0,
1999-12-08, 03:26:00,VALID,0,VALID,98.8278,VALID,0.0509425,VALID,17.8035,VALID,131,VALID,0,
1999-12-08, 03:27:00,VALID,0,VALID,98.4031,VALID,0.0339617,VALID,17.7779,VALID,130,VALID,0.246761,
1999-12-08, 03:28:00,VALID,0,VALID,98.2772,VALID,0,VALID,17.8107,VALID,136,VALID,0.626562,
1999-12-08, 03:29:00,VALID,0,VALID,97.6923,VALID,0.0169808,VALID,17.7523,VALID,132,VALID,0.487664,
1999-12-08, 03:30:00,VALID,0,VALID,98.2098,VALID,0,VALID,17.8102,VALID,111,VALID,0.676953,
1999-12-08, 03:31:00,VALID,0,VALID,98.3472,VALID,0,VALID,17.8617,VALID,107,VALID,0.29796,
1999-12-08, 03:32:00,VALID,0,VALID,98.1386,VALID,0.0509425,VALID,17.8587,VALID,107,VALID,0.00585938,
1999-12-08, 03:33:01,VALID,0,VALID,98.1819,VALID,0.0169808,VALID,17.8587,VALID,107,VALID,0,
1999-12-08, 03:34:01,VALID,0,VALID,98.2429,VALID,0.0169808,VALID,17.8843,VALID,107,VALID,0,
1999-12-08, 03:35:01,VALID,0,VALID,98.1997,VALID,0,VALID,17.9037,VALID,107,VALID,0,
1999-12-08, 03:36:00,VALID,0,VALID,98.0789,VALID,0.0339617,VALID,17.9268,VALID,107,VALID,0,
1999-12-08, 03:37:00,VALID,0,VALID,97.9631,VALID,0,VALID,17.9069,VALID,107,VALID,0,
1999-12-08, 03:38:00,VALID,0,VALID,97.9784,VALID,0.0169808,VALID,17.9166,VALID,107,VALID,0,
1999-12-08, 03:39:00,VALID,0,VALID,97.8093,VALID,0.0509425,VALID,17.8945,VALID,108,VALID,0,
1999-12-08, 03:40:00,VALID,0,VALID,97.691,VALID,0.101885,VALID,17.8712,VALID,108,VALID,0,
1999-12-08, 03:41:00,VALID,0,VALID,97.7063,VALID,0.0509425,VALID,17.8841,VALID,108,VALID,0,
1999-12-08, 03:42:00,VALID,0,VALID,97.5283,VALID,0.0509425,VALID,17.8714,VALID,108,VALID,0,
1999-12-08, 03:43:00,VALID,0,VALID,97.3642,VALID,0.0169808,VALID,17.8548,VALID,108,VALID,0,
1999-12-08, 03:44:00,VALID,0,VALID,97.382,VALID,0.0509425,VALID,17.8617,VALID,109,VALID,0,
1999-12-08, 03:45:00,VALID,0,VALID,97.3451,VALID,0.0339617,VALID,17.8483,VALID,109,VALID,0,
1999-12-08, 03:46:00,VALID,0,VALID,97.6274,VALID,0,VALID,17.8682,VALID,108,VALID,0,
1999-12-08, 03:47:00,VALID,0,VALID,97.4939,VALID,0.0339617,VALID,17.8585,VALID,109,VALID,0,
1999-12-08, 03:48:00,VALID,0,VALID,97.5842,VALID,0.0169808,VALID,17.846,VALID,109,VALID,0,
1999-12-08, 03:49:00,VALID,0,VALID,97.658,VALID,0.0339617,VALID,17.8326,VALID,109,VALID,0,
1999-12-08, 03:50:00,VALID,0,VALID,97.7457,VALID,0.0339617,VALID,17.8492,VALID,141,VALID,0,
1999-12-08, 03:51:00,VALID,0,VALID,97.4392,VALID,0.0679233,VALID,17.7936,VALID,142,VALID,0,
1999-12-08, 03:52:00,VALID,0,VALID,97.3909,VALID,0,VALID,17.7523,VALID,142,VALID,0,
1999-12-08, 03:53:00,VALID,0,VALID,98.0433,VALID,0.0339617,VALID,17.7747,VALID,142,VALID,0,
1999-12-08, 03:54:00,VALID,0,VALID,97.9136,VALID,0.0169808,VALID,17.7811,VALID,142,VALID,0,
1999-12-08, 03:55:01,VALID,0,VALID,97.5537,VALID,0.0169808,VALID,17.7492,VALID,142,VALID,0,
1999-12-08, 03:56:00,VALID,0,VALID,97.4558,VALID,0,VALID,17.6973,VALID,142,VALID,0,
1999-12-08, 03:57:00,VALID,0,VALID,97.5562,VALID,0,VALID,17.6491,VALID,142,VALID,0,
1999-12-08, 03:58:00,VALID,0,VALID,98.0382,VALID,0,VALID,17.6197,VALID,143,VALID,0,
1999-12-08, 03:59:00,VALID,0,VALID,98.4807,VALID,0.0169808,VALID,17.6456,VALID,149,VALID,0,
1999-12-08, 04:00:00,VALID,0,VALID,98.3484,VALID,0.0169808,VALID,17.6428,VALID,149,VALID,0,
1999-12-08, 04:01:00,VALID,0,VALID,98.2467,VALID,0.0169808,VALID,17.6034,VALID,149,VALID,0,
1999-12-08, 04:02:00,VALID,0,VALID,98.4298,VALID,0.0339617,VALID,17.6004,VALID,149,VALID,0,
1999-12-08, 04:03:00,VALID,0,VALID,98.309,VALID,0.0339617,VALID,17.5583,VALID,149,VALID,0,
1999-12-08, 04:04:00,VALID,0,VALID,98.3637,VALID,0.0169808,VALID,17.5392,VALID,149,VALID,0,
1999-12-08, 04:05:00,VALID,0,VALID,98.5761,VALID,0,VALID,17.5293,VALID,149,VALID,0,
1999-12-08, 04:06:00,VALID,0,VALID,98.5595,VALID,-0.0509425,VALID,17.4914,VALID,152,VALID,0,
1999-12-08, 04:07:00,VALID,0,VALID,98.9003,VALID,-0.101885,VALID,17.5213,VALID,153,VALID,0,
1999-12-08, 04:08:00,VALID,0,VALID,99.0567,VALID,-0.101885,VALID,17.5661,VALID,153,VALID,0,
1999-12-08, 04:09:00,VALID,0,VALID,98.8965,VALID,-0.0679233,VALID,17.5567,VALID,153,VALID,0,
1999-12-08, 04:10:00,VALID,0,VALID,98.7541,VALID,-0.0679233,VALID,17.5504,VALID,153,VALID,0,
1999-12-08, 04:11:00,VALID,0,VALID,98.5989,VALID,-0.0679233,VALID,17.5211,VALID,153,VALID,0,
1999-12-08, 04:12:00,VALID,0,VALID,98.7528,VALID,-0.101885,VALID,17.5243,VALID,153,VALID,0,
1999-12-08, 04:13:00,VALID,0,VALID,98.8304,VALID,-0.0849042,VALID,17.5207,VALID,153,VALID,0,
1999-12-08, 04:14:00,VALID,0,VALID,98.9893,VALID,-0.118866,VALID,17.5532,VALID,153,VALID,0,
1999-12-08, 04:15:00,VALID,0,VALID,98.9156,VALID,-0.101885,VALID,17.5793,VALID,153,VALID,0,
1999-12-08, 04:16:00,VALID,0,VALID,98.6524,VALID,-0.101885,VALID,17.5571,VALID,153,VALID,0,
1999-12-08, 04:17:00,VALID,0,VALID,98.468,VALID,-0.0849042,VALID,17.534,VALID,153,VALID,0,
1999-12-08, 04:18:01,VALID,0,VALID,98.5977,VALID,-0.101885,VALID,17.5377,VALID,153,VALID,0,
1999-12-08, 04:19:00,VALID,0,VALID,98.7032,VALID,-0.118866,VALID,17.5603,VALID,153,VALID,0,
1999-12-08, 04:20:00,VALID,0,VALID,98.5875,VALID,-0.101885,VALID,17.5608,VALID,151,VALID,0,
1999-12-08, 04:21:00,VALID,0,VALID,98.1869,VALID,-0.0509425,VALID,17.492,VALID,128,VALID,0,